Regional Weather Roundup
Issued by NWS Burlington, VT

Home | Current Version | Previous Version | Text Only | Print | Product List | Glossary On
Versions: 1 2 3 4 5 6 7 8 9 10 11 12 13 14 15 16 17 18 19 20 21 22 23 24 25 26 27 28 29 30 31 32 33 34 35 36 37 38 39 40 41 42 43 44 45 46 47 48 49 50
000
ASUS41 KBTV 232130
RWRBTV
VERMONT REGIONAL WEATHER ROUNDUP
NATIONAL WEATHER SERVICE BURLINGTON VT
500 PM EDT THU MAR 23 2017

NOTE: "FAIR" INDICATES FEW OR NO CLOUDS BELOW 12,000 FEET WITH NO
SIGNIFICANT WEATHER AND/OR OBSTRUCTIONS TO VISIBILITY.

* THESE REPORTS ARE NOT UNDER NWS QUALITY CONTROL AND/OR DO NOT
  REPORT WEATHER SUCH AS PRECIPITATION AND FOG.

VTZ001>019-232200-
_____VERMONT_____


CITY           SKY/WX    TMP DP  RH WIND       PRES   REMARKS
BURLINGTON     FAIR      33   4  29 N12       30.45F WCI  24
MONTPELIER     FAIR      28   1  31 N16G23    30.43R WCI  16
MORRISVILLE    FAIR      29   0  28 NW13      30.44S WCI  19
ST. JOHNSBURY*   N/A     30  -1  26 MISG      30.40R
LYNDONVILLE*   FAIR      25  -2  30 W14G24    30.40S WCI  14
MIDDLEBURY*    FAIR      31   3  30 N7        30.44S WCI  25
RUTLAND*       FAIR      33   1  25 VRB6      30.42S WCI  28
SPRINGFIELD    FAIR      35  -2  20 VRB6      30.42S WCI  30
HIGHGATE*      FAIR      31   3  30 NW5       30.47F WCI  26
NEWPORT*       FAIR      25   0  33 W9G16     30.42S WCI  15
BENNINGTON     FAIR      34   3  27 NW9       30.43F WCI  27
SUTTON*          N/A     25 N/A N/A MISG        N/A
ISLAND POND*     N/A     25 N/A N/A W10         N/A  WCI  15
GALLUP MILLS*    N/A     25 N/A N/A MISG        N/A
UNION VILLAGE*   N/A     34 N/A N/A MISG        N/A
MT. MANSFIELD*   N/A     12 N/A N/A NW30        N/A  WCI  -9

_____LAKE CHAMPLAIN_____


CITY           SKY/WX    TMP DP  RH WIND       PRES   REMARKS
BURTON ISLAND*   N/A     34  14  44 N3          N/A
COLCHESTER RF*   N/A     34   9  35 N16         N/A  WCI  23
DIAMOND ISL*     N/A     32   9  37 N18G24      N/A  WCI  20

$$

NYZ007-026>031-035-052-083-087-232200-
_____NORTHERN NEW YORK_____


CITY           SKY/WX    TMP DP  RH WIND       PRES   REMARKS
PLATTSBURGH    FAIR      35   0  22 NW8G16    30.46S WCI  29
SARANAC LAKE   FAIR      29   0  28 VRB6      30.37F WCI  23
MASSENA        FAIR      35   5  28 W10       30.48F WCI  27
POTSDAM*       SUNNY     34  12  40 W9        30.47S VSB 1   WCI  26
STARK FALLS*     N/A     30 N/A N/A NW3         N/A
WATERTOWN      FAIR      31  14  49 SW13      30.51F WCI  21
FT DRUM        FAIR      31  10  42 SW12      30.46F WCI  21
ALBANY         FAIR      36   7  29 NW18      30.49F WCI  26
GLENS FALLS    FAIR      39   1  20 NW12      30.44F WCI  32

$$
NHZ002-005-011-232200-
_____NEW HAMPSHIRE_____


CITY           SKY/WX    TMP DP  RH WIND       PRES   REMARKS
LEBANON        FAIR      35   2  24 NW10G23   30.39F WCI  27
KEENE          FAIR      35   0  22 W8        30.41F WCI  29
MT WASHINGTON  MOSUNNY    0  -9  65 W67G76      N/A  WCI -35
PLYMOUTH       FAIR      32   0  25 W10G20    30.38S WCI  24
WHITEFIELD     FAIR      27  -4  26 W13G20    30.37S WCI  16

$$

_____REGIONAL QUEBEC LOCATIONS_____


CITY           SKY/WX    TMP DP  RH WIND       PRES   REMARKS
MONTREAL       MOSUNNY   32   3  29 W13G22    30.44F WCI  22
QUEBEC CITY    MOSUNNY   27   0  31 W10       30.38F WCI  17
SHERBROOKE     SUNNY     23   0  36 W14G22    30.39F WCI  11

_____REGIONAL ONTARIO LOCATIONS_____


CITY           SKY/WX    TMP DP  RH WIND       PRES   REMARKS
OTTAWA         MOSUNNY   34   1  25 CALM      30.44F

______KEY______
VSB  - VISIBILITY IN MILES
WCI  - WIND CHILL INDEX
HX   - HEAT INDEX
$$
NNNN




USA.gov is the U.S. government's official web portal to all federal, state and local government web resources and services.